sat.trackr.live / text

‹ back to catalog

WGS F3 (USA 211)

NORAD 36108 · 2009-068A

PAYLOAD ACTIVE UNKNOWN

§ Identity

Operator
Country
US
Launch date
2009-12-06
Launch site
AFETR
Launch vehicle
Mass (kg)
RCS (m²)
10.00

Purposes: comms

External: N2YO · Heavens-Above · Gunter

§ Orbital elements

Epoch: 2026-09-15T21:43:26.343264Z

Period
1,436.07 min
Inclination
0.3114°
Eccentricity
0.0000510
Mean motion
1.00273561 rev/d
Perigee alt
35,783.9 km
Apogee alt
35,788.2 km
Semi-major
42,164.2 km
B*
0.0000e+0
RAAN
85.0725°
Arg perigee
35.6908°
Mean anomaly
77.6688°
Rev number
4,750

§ Raw data

WGS F3 (USA 211)1 36108U 09068A   26258.90516601  .00000015  00000+0  00000+0 0  99962 36108   0.3114  85.0725 0000510  35.6908  77.6688  1.00273561 47506

JSON: /api/v1/satellites/36108 · /tle

For live sub-satellite position, see the globe view (requires WebGL).

§ Visibility from observer

Set your observer location to see the next 7 days of passes ≥ 10°. The values pass through the URL so the page stays shareable.

No JS? Fill the form by hand. The geolocation button needs JavaScript.